Weather History for KAMW - June, 2014

Change the Weather History Date:

Saturday, June 7, 2014

  Actual Average Record
Temperature  
Mean Temperature 66 °F 68 °F  
Max Temperature 72 °F 79 °F 93 °F (2011)
Min Temperature 60 °F 57 °F 43 °F (1998)
Degree Days  
Heating Degree Days 0 1  
Month to date heating degree days 0 12  
Since 1 June heating degree days 0 12  
Since 1 July heating degree days 7623 6819  
Cooling Degree Days 1 4  
Month to date cooling degree days 30 26  
Year to date cooling degree days 107 75  
Since 1 June cooling degree days 30 26  
Growing Degree Days 16 (Base 50)    
Moisture  
Dew Point 62 °F    
Average Humidity 87    
Maximum Humidity 100    
Minimum Humidity 73    
Precipitation  
Precipitation 0.89 in 0.16 in 0.89 in (2014)
Month to date precipitation 2.73 1.26  
Sea Level Pressure  
Sea Level Pressure 29.91 in    
Wind  
Wind Speed 7 mph (North)    
Max Wind Speed 26 mph    
Max Gust Speed 33 mph    
Visibility 7 miles    
Events Fog , Rain , Thunderstorm    
T = Trace of Precipitation, MM = Missing Value Source: NWS Daily Summary

Daily Weather History Graph

Daily Weather History Graph

Search for Another Location

Airport or City:

Trip Planner

Search our weather history database for the weather conditions in past years. The results will help you decide how hot, cold, wet, or windy it might be!

Date:

Astronomy

Jun. 07, 2014 Rise Set
Actual Time 5:39 AM CDT 8:47 PM CDT
Civil Twilight 5:05 AM CDT 9:21 PM CDT
Nautical Twilight 4:21 AM CDT 10:05 PM CDT
Astronomical Twilight 3:29 AM CDT 10:57 PM CDT
Moon 3:01 PM CDT (6/7) 2:06 AM CDT (6/7)
Length of Visible Light 16h 16m
Length of Day
15h 08m
Waxing Gibbous, 68% of the Moon is Illuminated
Jun 7
Waxing Gibbous
Jun 12
Full
Jun 19
Last Quarter
Jun 27
New
Jul 5
First Quarter

Hourly Weather History & Observations

Time (CDT) Temp. Dew Point Humidity Pressure Visibility Wind Dir Wind Speed Gust Speed Precip Events Conditions
12:53 AM 66.9 °F 63.0 °F 87% 29.91 in 10.0 mi SSE 4.6 mph - N/A   Clear
1:53 AM 66.0 °F 62.1 °F 87% 29.90 in 10.0 mi ESE 3.5 mph - N/A   Clear
2:53 AM 66.9 °F 63.0 °F 87% 29.91 in 10.0 mi South 5.8 mph - N/A   Clear
3:53 AM 66.9 °F 63.0 °F 87% 29.90 in 10.0 mi Calm Calm - N/A   Clear
4:53 AM 64.0 °F 62.1 °F 93% 29.90 in 7.0 mi Calm Calm - N/A   Clear
5:53 AM 63.0 °F 62.1 °F 97% 29.90 in 4.0 mi Calm Calm - N/A   Clear
6:53 AM 64.9 °F 63.0 °F 93% 29.88 in 5.0 mi Calm Calm - N/A   Clear
8:53 AM 69.1 °F 64.9 °F 87% 29.90 in 6.0 mi North 3.5 mph - N/A   Scattered Clouds
10:46 AM 71.1 °F 66.0 °F 84% 29.91 in 8.0 mi NE 4.6 mph - N/A Thunderstorm Mostly Cloudy
10:53 AM 71.1 °F 64.9 °F 81% 29.89 in 8.0 mi NE 5.8 mph - N/A Thunderstorm Mostly Cloudy
11:19 AM 70.0 °F 63.0 °F 78% 29.90 in 9.0 mi North 15.0 mph - N/A   Mostly Cloudy
11:53 AM 69.1 °F 62.1 °F 78% 29.87 in 10.0 mi North 9.2 mph - 0.00 in   Overcast
12:53 PM 68.0 °F 62.1 °F 81% 29.88 in 8.0 mi NW 11.5 mph - 0.00 in Rain Light Rain
1:14 PM 66.9 °F 63.0 °F 87% 29.90 in 4.0 mi NW 11.5 mph - 0.02 in Rain , Thunderstorm Thunderstorms and Rain
1:23 PM 66.0 °F 63.0 °F 90% 29.92 in 2.5 mi Calm Calm - 0.11 in Rain , Thunderstorm Light Thunderstorms and Rain
1:25 PM 66.0 °F 63.0 °F 90% 29.92 in 0.8 mi Calm Calm - 0.25 in Rain , Thunderstorm Thunderstorms and Rain
1:29 PM 64.9 °F 63.0 °F 93% 29.92 in 0.2 mi WSW 12.7 mph - 0.51 in Fog , Rain Heavy Rain
1:42 PM 64.9 °F 63.0 °F 93% 29.91 in 1.0 mi WNW 11.5 mph - 0.67 in Rain Heavy Rain
1:53 PM 64.9 °F 63.0 °F 93% 29.89 in 2.5 mi NW 12.7 mph - 0.70 in Rain Rain
1:58 PM 64.9 °F 63.0 °F 93% 29.91 in 3.0 mi NNW 12.7 mph - 0.01 in Rain Light Rain
2:51 PM 64.4 °F 62.6 °F 94% 29.92 in 2.5 mi North 5.8 mph - 0.11 in Rain Rain
2:53 PM 64.9 °F 63.0 °F 93% 29.90 in 2.5 mi NNW 6.9 mph - 0.11 in Rain Rain
3:02 PM 64.9 °F 63.0 °F 93% 29.91 in 4.0 mi NNE 6.9 mph - 0.02 in Rain Rain
3:53 PM 64.0 °F 61.0 °F 90% 29.88 in 4.0 mi NE 6.9 mph - 0.07 in Rain Light Rain
4:53 PM 66.0 °F 62.1 °F 87% 29.89 in 10.0 mi North 6.9 mph - 0.01 in   Mostly Cloudy
5:53 PM 71.1 °F 63.0 °F 75% 29.90 in 10.0 mi NNW 9.2 mph - N/A   Clear
6:53 PM 70.0 °F 62.1 °F 76% 29.90 in 10.0 mi North 8.1 mph - N/A   Partly Cloudy
7:53 PM 70.0 °F 62.1 °F 76% 29.91 in 10.0 mi North 6.9 mph - N/A   Mostly Cloudy
8:53 PM 63.0 °F 57.0 °F 81% 29.94 in 10.0 mi North 15.0 mph 24.2 mph N/A   Partly Cloudy
9:53 PM 61.0 °F 55.9 °F 83% 29.96 in 10.0 mi North 16.1 mph - N/A   Scattered Clouds
10:53 PM 60.1 °F 55.9 °F 86% 29.98 in 10.0 mi North 12.7 mph - N/A   Clear
11:22 PM 60.1 °F 55.9 °F 86% 30.00 in 10.0 mi North 10.4 mph - N/A   Mostly Cloudy
11:53 PM 60.1 °F 55.0 °F 83% 30.00 in 10.0 mi North 16.1 mph 23.0 mph N/A   Overcast